N750XP LLER-OENG

Flight info

Callsign N750XP
Flight time N/A
Altitude 45000
Route NALSO R650 SHM DCT PASUM L677 WEJ J852 KULKI T510 RBG B544 JDW V31 BHA V40 ABH V749 REVOS
Aircraft C750/M-SBDE3FGHRWXY/S

Departure

Time 2026-05-01 15:03
Airport Ramon International Airport (LLER)

Arrival

Time N/A
Airport Najran Domestic Airport (OENG)
Time Latitude Longitude Altitude Speed Heading
2026-05-01 14:47 29.72743 35.00845 318 ft 0 kts 284°
2026-05-01 14:54 29.72743 35.00844 318 ft 0 kts 284°
2026-05-01 14:55 29.72742 35.00848 318 ft 0 kts 284°
2026-05-01 14:55 29.72740 35.00857 317 ft 1 kts 284°
2026-05-01 14:55 29.72737 35.00870 317 ft 2 kts 284°
2026-05-01 14:55 29.72734 35.00881 316 ft 0 kts 284°
2026-05-01 14:56 29.72732 35.00891 315 ft 2 kts 284°
2026-05-01 14:56 29.72728 35.00908 315 ft 2 kts 284°
2026-05-01 14:56 29.72726 35.00918 314 ft 2 kts 281°
2026-05-01 14:57 29.72727 35.00935 313 ft 2 kts 253°
2026-05-01 14:57 29.72746 35.00959 312 ft 2 kts 200°
2026-05-01 14:57 29.72752 35.00961 312 ft 0 kts 193°
2026-05-01 14:58 29.72751 35.00961 312 ft 1 kts 193°
2026-05-01 14:58 29.72690 35.00944 312 ft 10 kts 194°
2026-05-01 14:59 29.72612 35.00925 311 ft 12 kts 191°
2026-05-01 14:59 29.72516 35.00912 310 ft 13 kts 172°
2026-05-01 14:59 29.72433 35.00906 309 ft 12 kts 138°
2026-05-01 14:59 29.72401 35.01006 303 ft 15 kts 106°
2026-05-01 15:00 29.72228 35.01067 297 ft 10 kts 139°
2026-05-01 15:00 29.72216 35.01151 292 ft 9 kts 104°
2026-05-01 15:00 29.72214 35.01156 292 ft 0 kts 105°
2026-05-01 15:01 29.72214 35.01159 292 ft 0 kts 105°
2026-05-01 15:01 29.72213 35.01162 292 ft 2 kts 105°
2026-05-01 15:01 29.72205 35.01193 290 ft 5 kts 107°
2026-05-01 15:01 29.72195 35.01261 288 ft 8 kts 41°
2026-05-01 15:02 29.72212 35.01268 288 ft 0 kts 10°
2026-05-01 15:02 29.72227 35.01272 288 ft 17 kts 12°
2026-05-01 15:02 29.72677 35.01398 293 ft 110 kts 13°
2026-05-01 15:03 29.73637 35.01678 372 ft 168 kts 13°
2026-05-01 15:03 29.74867 35.02004 981 ft 191 kts
2026-05-01 15:03 29.76063 35.01542 2012 ft 190 kts 316°
2026-05-01 15:03 29.76479 35.00136 2834 ft 209 kts 267°
2026-05-01 15:04 29.75745 34.98547 3254 ft 250 kts 227°
2026-05-01 15:04 29.74087 34.97749 3948 ft 269 kts 185°
2026-05-01 15:04 29.72219 34.98147 4482 ft 285 kts 156°
2026-05-01 15:04 29.70574 34.99442 5253 ft 287 kts 141°
2026-05-01 15:05 29.68859 35.00526 6142 ft 288 kts 157°
2026-05-01 15:05 29.66691 35.01120 4516 ft 349 kts 181°
2026-05-01 15:05 29.64446 35.00436 3722 ft 333 kts 213°
2026-05-01 15:05 29.62940 34.98660 3587 ft 297 kts 242°
2026-05-01 15:06 29.61907 34.96569 2732 ft 302 kts 231°
2026-05-01 15:06 29.60424 34.94868 3774 ft 313 kts 229°
2026-05-01 15:06 29.58781 34.93084 4683 ft 336 kts 224°
2026-05-01 15:06 29.56984 34.91248 5587 ft 356 kts 224°
2026-05-01 15:07 29.55090 34.89335 6627 ft 369 kts 224°
2026-05-01 15:07 29.53093 34.87632 8264 ft 363 kts 208°
2026-05-01 15:07 29.50785 34.86710 9970 ft 351 kts 203°
2026-05-01 15:07 29.48563 34.85741 11536 ft 339 kts 202°
2026-05-01 15:08 29.46385 34.84861 12961 ft 329 kts 204°
2026-05-01 15:08 29.44230 34.83964 13990 ft 332 kts 204°
2026-05-01 15:08 29.42054 34.83067 14955 ft 335 kts 204°
2026-05-01 15:08 29.39759 34.82592 15783 ft 348 kts 183°
2026-05-01 15:09 29.37364 34.83093 16687 ft 361 kts 161°
2026-05-01 15:09 29.35162 34.84521 17598 ft 367 kts 153°
2026-05-01 15:09 29.32956 34.86033 18405 ft 372 kts 152°
2026-05-01 15:09 29.30737 34.87595 19125 ft 379 kts 152°
2026-05-01 15:10 29.28483 34.89180 19879 ft 384 kts 153°
2026-05-01 15:10 29.23877 34.92413 21417 ft 392 kts 153°
2026-05-01 15:10 29.21530 34.94054 22098 ft 398 kts 152°
2026-05-01 15:11 29.19193 34.95696 22807 ft 402 kts 153°
2026-05-01 15:11 29.14383 34.99062 24185 ft 410 kts 152°
2026-05-01 15:11 29.11936 35.00779 24806 ft 414 kts 153°
2026-05-01 15:12 29.09463 35.02506 25434 ft 418 kts 152°
2026-05-01 15:12 29.04473 35.05995 26615 ft 426 kts 152°
2026-05-01 15:12 29.01917 35.07780 27148 ft 431 kts 152°
2026-05-01 15:13 28.94131 35.13210 28705 ft 443 kts 152°
2026-05-01 15:14 28.88837 35.16901 29695 ft 451 kts 152°
2026-05-01 15:14 28.86148 35.18776 30162 ft 454 kts 152°
2026-05-01 15:14 28.80682 35.22572 31110 ft 460 kts 152°
2026-05-01 15:15 28.75174 35.26402 31901 ft 468 kts 152°
2026-05-01 15:15 28.69554 35.30299 32691 ft 475 kts 153°
2026-05-01 15:16 28.63884 35.34224 33446 ft 481 kts 152°
2026-05-01 15:16 28.58152 35.38192 34138 ft 489 kts 153°
2026-05-01 15:17 28.52317 35.42226 35135 ft 488 kts 153°
2026-05-01 15:18 28.43646 35.48205 36515 ft 488 kts 154°
2026-05-01 15:18 28.40722 35.50226 36925 ft 488 kts 154°
2026-05-01 15:19 28.31992 35.56227 38018 ft 491 kts 155°
2026-05-01 15:19 28.26130 35.60256 38747 ft 491 kts 155°
2026-05-01 15:19 28.23213 35.62255 39097 ft 492 kts 155°
2026-05-01 15:20 28.17313 35.66292 39672 ft 495 kts 155°
2026-05-01 15:20 28.14390 35.68296 39943 ft 496 kts 155°
2026-05-01 15:20 28.11435 35.70321 40296 ft 495 kts 155°
2026-05-01 15:21 28.08504 35.72326 40523 ft 497 kts 155°
2026-05-01 15:21 28.05514 35.74364 40755 ft 499 kts 155°
2026-05-01 15:21 28.02550 35.76393 41023 ft 499 kts 155°
2026-05-01 15:21 27.99580 35.78422 41292 ft 499 kts 156°
2026-05-01 15:22 27.93626 35.82482 41767 ft 501 kts 155°
2026-05-01 15:22 27.90637 35.84512 41996 ft 502 kts 155°
2026-05-01 15:22 27.87622 35.86570 42232 ft 503 kts 155°
2026-05-01 15:23 27.84604 35.88620 42470 ft 503 kts 155°
2026-05-01 15:23 27.81611 35.90659 42702 ft 504 kts 155°
2026-05-01 15:23 27.78619 35.92692 42931 ft 504 kts 155°
2026-05-01 15:23 27.75620 35.94725 43075 ft 506 kts 155°
2026-05-01 15:24 27.72616 35.96766 43318 ft 506 kts 155°
2026-05-01 15:24 27.69581 35.98825 43569 ft 505 kts 155°
2026-05-01 15:24 27.66588 36.00849 43720 ft 507 kts 155°
2026-05-01 15:24 27.63558 36.02905 43949 ft 507 kts 155°
2026-05-01 15:25 27.60553 36.04937 44105 ft 508 kts 155°
2026-05-01 15:25 27.57524 36.06990 44332 ft 507 kts 155°
2026-05-01 15:25 27.54498 36.09033 44540 ft 507 kts 155°
2026-05-01 15:25 27.51468 36.11085 44770 ft 507 kts 155°
2026-05-01 15:26 27.48434 36.13126 44905 ft 508 kts 155°
2026-05-01 15:26 27.45360 36.15201 44899 ft 512 kts 155°
2026-05-01 15:26 27.39236 36.19324 44897 ft 520 kts 155°
2026-05-01 15:27 27.32989 36.23535 44934 ft 527 kts 155°
2026-05-01 15:28 27.23427 36.29960 44917 ft 539 kts 155°
2026-05-01 15:28 27.16956 36.34301 44903 ft 547 kts 155°
2026-05-01 15:29 27.07058 36.40922 44905 ft 558 kts 154°
2026-05-01 15:30 26.93602 36.49918 44918 ft 567 kts 154°
2026-05-01 15:31 26.22247 36.97172 44871 ft 562 kts 155°
2026-05-01 15:32 26.08796 37.06004 44889 ft 559 kts 155°
2026-05-01 15:34 25.88735 37.19129 44852 ft 558 kts 155°